Regional Weather Roundup
Issued by NWS Charleston, SC

Home | Current Version | Previous Version | Text Only | Print | Product List | Glossary On
Versions: 1 2 3 4 5 6 7 8 9 10 11 12 13 14 15 16 17 18 19 20 21 22 23 24 25 26 27 28 29 30 31 32 33 34 35 36 37 38 39 40 41 42 43 44 45 46 47 48 49 50
000
ASUS42 KCHS 110111
RWRCHS

REGIONAL WEATHER ROUNDUP
NATIONAL WEATHER SERVICE CHARLESTON SC
800 PM EST SUN DEC 10 2017

NOTE: "FAIR" INDICATES FEW OR NO CLOUDS BELOW 12,000 FEET WITH NO
SIGNIFICANT WEATHER AND/OR OBSTRUCTIONS TO VISIBILITY.

NOT ALL STATIONS ARE QUALITY CONTROLLED. USE DATA WITH CAUTION...
ESPECIALLY DEWPOINT OBSERVATIONS.

SCZ027-030-031-034>040-042>050-110200-
...SOUTHEAST SOUTH CAROLINA...

CITY           SKY/WX    TMP DP  RH WIND       PRES   REMARKS
N CHARLESTON   CLEAR     37  31  78 SW5       30.24S WCI  33
WATERFRONT PRK   N/A     44  34  67 VRB3      30.09R
JOHNS ISLAND   FAIR      41  32  70 SW3       30.25S
PINOPOLIS        N/A     41  34  75 SW5       30.16R
MONCKS CORNER  FAIR      34  32  93 CALM      30.24R
SUMMERVILLE    FAIR      34  32  93 CALM      30.25S
BEAUFORT MCAS  CLEAR     38  36  92 SW3       30.25S
BEAUFORT ARPT  FAIR      37  34  87 SW5       30.25R WCI  34
HILTON HEAD IS CLEAR     37  34  87 CALM      30.26S
WALTERBORO     CLEAR     34  32  93 CALM      30.25S
ALLENDALE      FAIR      37  32  81 CALM      30.23S

...SOUTHERN MIDLANDS AND PEE DEE...

CITY           SKY/WX    TMP DP  RH WIND       PRES   REMARKS
GEORGETOWN     FAIR      32  32 100 CALM      30.24S
KINGSTREE      FAIR      32  30  93 CALM      30.23R
ORANGEBURG     CLEAR     35  29  78 S3        30.22R
BARNWELL         N/A     36  32  87 CALM      30.22S
AIKEN          FAIR      34  27  75 SW6       30.23F WCI  29
MANNING        FAIR      34  32  93 MISG      30.23R
COLUMBIA       CLEAR     34  31  88 CALM      30.20S
SUMTER         CLEAR     35  26  70 SW7       30.18S WCI  29
FLORENCE       CLEAR     36  29  75 S5        30.21R WCI  32
MYRTLE BEACH   CLEAR     38  29  70 W5        30.23S WCI  34
N MYRTLE BEACH CLEAR     38  33  82 CALM      30.22R

$$

GAZ063-065-086>088-099>101-113>116-118-119-134>141-150-110200-
...SOUTHEAST GEORGIA...

CITY           SKY/WX    TMP DP  RH WIND       PRES   REMARKS
SAVANNAH ARPT  CLEAR     37  32  82 SW3       30.26S
HUNTER AAF     CLEAR     37  31  76 CALM      30.23S
FORT STEWART   CLEAR     35  31  85 CALM      30.25S
STATESBORO     CLEAR     34  33  95 CALM      30.24S
SYLVANIA       CLEAR     37  35  91 CALM      30.25S
CLAXTON        FAIR      35  34  97 CALM      30.26S

...CSRA...CENTRAL AND FAR SOUTHEAST GEORGIA...

CITY           SKY/WX    TMP DP  RH WIND       PRES   REMARKS
THOMSON        CLEAR     33  28  82 NW5       30.27S WCI  29
AUGUSTA-BUSH   CLEAR     34  29  82 CALM      30.22S
AUGUSTA-DANIEL CLEAR     42  26  53 CALM      30.22S
SWAINSBORO     FAIR      37  32  81 W3        30.26S
VIDALIA        CLEAR     41  32  70 W3        30.25F
EASTMAN        FAIR      37  28  72 CALM      30.29S
HAZLEHURST     FAIR      38  28  68 CALM      30.26S
ALMA           CLEAR     34  32  92 CALM      30.27R
WAYCROSS       CLEAR     36  32  87 SW3       30.28S
JESUP          NOT AVBL
BAXLEY         FAIR      34  34 100 CALM      30.26F
BRUNSWICK      CLEAR     36  32  87 CALM      30.29R
SAINT SIMONS   CLEAR     41  34  76 CALM      30.27S

$$

SCZ027-028-034-036>038-045-046-048>050-GAZ119-141-110200-
...LAKE AND SUPPLEMENTAL COASTAL OBSERVATIONS...

STATION/POSITION TIME  TEMP    WIND        PRES    WAVE   SWELL
                       AIR SEA DIR/SP/G            HT/PER HT/PER/DIR
                 (UTC) (F)     (DEG/KT/KT) (MB)    (FT/S) (FT/S/D)
WINYAH BAY       NOT AVBL
LAKE MURRAY      0020   46     240/  8/ 10 1021.7
ACE BASIN NERRS  2345   38        CALM     1024.0
FORT PULASKI     0024   45 56  250/  5/  6 1024.9
SAPELO ISLAND    NOT AVBL

$$

ANZ835-935-AMZ111-154-330-350-352-354-370-450-454-472-110200-
...C-MAN AND BUOY OBSERVATIONS...

STATION/POSITION TIME  TEMP    WIND        PRES    WAVE   SWELL
                       AIR SEA DIR/SP/G            HT/PER HT/PER/DIR
                 (UTC) (F)     (DEG/KT/KT) (MB)    (FT/S) (FT/S/D)
BUOY 41004       0050      73  250/ 10/ 17 1023.5R   2/10   2/120/10
BUOY 41008       2350   51 61  250/ 10/ 14 1024.6    1/ 9   2/ 70/ 9
FOLLY BEACH CMAN 0000   43     260/  4/  5 1024.5R
CAPERS NEARSHORE 0008   45     250/ 12/ 17 1023.7R
FRIPP NEARSHORE  0008   46 56  250/ 10/ 17 1023.4R


STATION/POSITION TIME  TEMP    WIND        PRES    WAVE   SWELL
                       AIR SEA DIR/SP/G            HT/PER HT/PER/DIR
                 (UTC) (F)     (DEG/KT/KT) (MB)    (FT/S) (FT/S/D)
5E ST. MARYS GA  0030      60                N/A     2/10
FRYING PAN BUOY  0050   50 61  260/ 10/ 14 1023.1S   3/ 6   2/200/ 6
BUOY 41025       0050   47 74  290/ 10/ 16 1022.3R   5/ 8   5/220/ 8
CAPE LOOKOUT NC  0000          280/  8/  9 1022.6R
BUOY 41002       2350   58 76  330/  8/ 14 1022.2    8/ 8   7/330/ 8
BUOY 41010       NOT AVBL
ST AUGUSTINE FL  0000   48 62  260/  2/  2 1025.9R


$$




USA.gov is the U.S. government's official web portal to all federal, state and local government web resources and services.